RH
33 25 10 15 36 28 40 49 62 56 55 62 59 63 66 68 60 72 76 70 66 63 56 52 49 44 41 39 40 41 39 36 33 32 27 23 22 17 14 15 15 14 14 13 13 11 10 9 10
31 23 14 14 27 32 46 56 63 67 66 64 60 62 64 68 62 63 69 61 57 57 55 50 45 43 41 39 38 37 35 30 27 24 21 20 17 12 11 10 10 12 15 15 11 9 7 7 8
29 28 21 26 26 30 52 55 59 62 67 67 60 64 65 69 60 56 61 57 58 62 55 46 43 42 40 36 32 28 27 25 23 20 19 16 11 10 10 10 12 16 17 16 13 11 10 10 10
33 33 37 37 36 38 43 49 56 54 63 62 56 51 50 43 43 47 55 60 59 52 46 40 39 39 30 24 24 24 22 20 19 18 14 10 10 11 11 14 17 18 18 18 17 17 15 15 15
30 37 30 43 48 46 49 52 57 50 58 57 51 52 48 50 43 44 49 48 44 36 33 29 25 19 20 21 21 19 18 17 15 11 9 10 13 15 13 15 17 19 20 23 22 24 24 25 24
27 31 42 47 49 54 55 57 54 54 52 52 49 47 44 44 27 36 38 30 28 21 18 17 17 17 16 16 15 15 14 12 10 9 11 15 16 16 17 20 23 25 26 28 29 29 30 29 29
30 30 42 48 54 59 53 50 49 48 48 49 48 39 40 39 33 32 31 19 17 16 15 15 15 15 12 11 11 10 9 9 10 14 17 18 24 26 27 29 29 31 31 30 31 31 30 29 29
36 37 40 47 56 50 54 50 44 44 46 40 39 32 33 27 27 28 28 20 17 15 16 15 14 10 8 8 8 9 12 16 18 21 27 30 30 30 30 30 31 33 35 34 33 33 32 32 31
39 41 41 44 46 49 46 42 36 35 35 32 29 29 25 22 21 22 22 19 17 18 18 16 13 15 13 12 15 20 23 25 28 31 34 34 35 35 36 36 36 35 36 37 37 38 38 36 34
36 34 39 44 51 45 41 36 26 23 26 30 30 30 27 19 19 20 19 20 20 23 21 20 17 17 20 26 28 30 33 34 34 36 35 37 38 39 39 39 39 39 40 40 40 40 40 41 40
31 28 28 34 42 34 29 18 19 14 18 17 19 24 25 22 24 19 19 19 20 29 29 30 24 22 27 30 34 38 39 39 40 39 36 39 40 41 43 43 41 40 41 42 42 42 42 41 40
26 24 22 31 28 25 22 12 12 11 13 14 17 18 23 26 24 22 21 24 35 35 37 39 32 27 29 34 39 46 48 47 49 47 43 39 41 42 44 45 47 48 49 48 47 45 43 43 39
25 25 24 23 21 20 13 8 8 10 11 15 18 22 23 27 30 28 27 31 34 35 39 44 38 37 37 41 54 56 53 52 57 54 51 43 42 46 52 55 55 55 55 53 51 51 49 46 43
25 18 16 20 20 10 7 8 9 13 15 20 19 21 22 29 33 33 31 31 33 36 39 48 43 52 54 51 62 61 59 63 58 56 53 52 51 53 59 61 59 58 58 56 54 53 53 51 49
18 13 5 9 15 9 9 14 17 20 20 22 20 22 27 31 32 33 33 34 37 39 40 43 49 52 55 56 57 61 65 67 63 64 62 58 56 61 67 64 61 58 54 55 53 51 51 52 51
11 16 18 22 21 17 19 22 27 27 22 23 25 26 29 32 35 38 43 46 45 45 52 58 58 64 63 60 58 64 61 64 67 70 66 65 66 71 70 64 59 58 57 55 56 49 46 48 49
26 21 27 26 29 25 23 24 28 22 23 26 26 29 34 39 42 47 52 48 48 47 55 57 86 72 73 72 69 61 65 70 77 71 70 73 77 75 72 67 63 58 59 53 50 46 43 44 41
33 31 29 36 33 29 32 28 26 29 30 27 29 31 32 34 42 50 55 57 54 52 67 78 72 78 79 75 66 66 69 72 74 77 77 77 71 66 63 62 63 61 55 52 50 46 43 42 40
37 34 31 36 37 34 37 33 35 36 36 36 36 35 37 40 44 50 51 54 59 70 77 76 82 81 74 68 71 74 75 77 78 76 77 72 67 64 66 61 56 52 51 51 48 45 45 43 40
39 36 38 36 32 33 37 37 40 40 40 39 41 42 47 54 52 56 61 66 74 72 67 67 68 68 69 72 76 76 75 74 75 77 74 70 63 60 54 54 53 51 50 49 49 49 46 45 46
37 38 36 33 30 27 34 40 44 45 42 40 44 47 54 59 59 61 61 60 58 61 63 61 62 64 68 71 72 72 73 73 71 66 63 58 55 52 49 48 48 47 48 49 51 54 55 53 50
27 37 36 33 28 32 35 52 49 47 45 44 50 53 57 57 58 56 53 48 46 50 51 53 59 63 65 66 66 69 68 63 59 56 54 51 47 44 44 48 49 50 51 51 53 53 51 49 47
27 25 25 23 25 27 38 51 54 51 51 51 57 57 58 57 52 48 48 46 46 48 50 52 55 58 61 60 57 53 50 49 48 47 46 49 53 55 51 52 56 60 58 50 43 48 48 50 51
24 25 30 31 32 42 45 50 57 55 55 58 65 61 61 54 48 48 49 48 50 50 51 53 53 51 52 52 52 50 48 48 47 48 50 54 56 54 54 64 60 57 52 43 43 41 41 43 44
25 31 48 50 54 56 49 60 62 60 62 62 64 58 56 57 62 61 55 52 52 53 58 58 60 60 56 54 51 50 48 48 51 52 55 64 65 72 55 57 55 52 42 32 32 35 36 39 42
30 32 48 56 69 62 54 61 57 58 59 64 57 62 64 66 60 60 63 61 60 60 57 55 56 59 59 57 58 58 59 59 57 64 62 73 66 69 52 49 44 42 41 34 32 29 31 34 38
29 29 29 40 46 46 50 50 52 54 59 63 72 69 62 62 58 65 68 67 64 59 56 59 63 63 62 60 63 64 65 61 66 60 44 43 41 47 54 57 48 43 33 33 36 41 37 33 35
23 25 32 37 41 49 50 52 58 56 58 57 58 54 58 63 69 71 70 67 59 61 64 64 64 62 63 63 60 57 52 48 42 36 39 49 54 59 67 73 54 45 50 53 55 51 32 34 36
29 29 30 32 41 48 58 50 45 51 51 52 52 55 63 74 76 73 71 67 64 65 63 62 62 60 59 56 47 37 37 39 42 41 41 51 57 77 73 70 70 74 67 55 52 48 34 38 40
25 29 31 41 42 52 56 48 44 50 52 57 60 63 68 79 78 73 71 68 67 65 63 64 60 55 50 41 36 37 38 39 44 43 41 50 57 68 77 86 82 74 61 52 49 44 43 40 40